Change the Weather History Date:

Friday, February 28, 2014

  Actual Average Record
Temperature  
Mean Temperature 6 °F -  
Max Temperature 19 °F 41 °F 62 °F (1976)
Min Temperature -7 °F 19 °F -23 °F (1934)
Degree Days  
Heating Degree Days 59    
Moisture  
Dew Point -8 °F    
Average Humidity 53    
Maximum Humidity 92    
Minimum Humidity 33    
Precipitation  
Precipitation 0.00 in - - ()
Sea Level Pressure  
Sea Level Pressure 30.19 in    
Wind  
Wind Speed 2 mph (SE)    
Max Wind Speed 10 mph    
Max Gust Speed -    
Visibility 10 miles    
Events      
Averages and records for this station are not official NWS values.
T = Trace of Precipitation, MM = Missing Value Source: NWS Daily Summary

Daily Weather History Graph

Daily Weather History Graph

Search for Another Location

Airport or City:

Trip Planner

Search our weather history database for the weather conditions in past years. The results will help you decide how hot, cold, wet, or windy it might be!

Date:

Astronomy

Feb. 28, 2014 Rise Set
Actual Time 6:55 AM EST 6:09 PM EST
Civil Twilight 6:27 AM EST 6:36 PM EST
Nautical Twilight 5:55 AM EST 7:08 PM EST
Astronomical Twilight 5:23 AM EST 7:40 PM EST
Moon 6:09 AM EST (2/28) 5:44 PM EST (2/28)
Length of Visible Light 12h 09m
Length of Day
11h 13m
Waning Crescent, 1% of the Moon is Illuminated
Feb 28
Waning Crescent
Mar 1
New
Mar 8
First Quarter
Mar 16
Full
Mar 23
Last Quarter

Hourly Weather History & Observations

Time (EST) Temp. Windchill Dew Point Humidity Pressure Visibility Wind Dir Wind Speed Gust Speed Precip Events Conditions
12:15 AM -0.4 °F - -11.2 °F 60% 30.09 in 10.0 mi Calm Calm - N/A   Scattered Clouds
12:35 AM -0.4 °F - -11.2 °F 60% 30.10 in 10.0 mi Calm Calm - N/A   Scattered Clouds
12:55 AM -0.4 °F - -14.8 °F 51% 30.10 in 10.0 mi Calm Calm - N/A   Scattered Clouds
1:15 AM -0.4 °F - -11.2 °F 60% 30.11 in 10.0 mi Calm Calm - N/A   Mostly Cloudy
1:35 AM -2.2 °F - -11.2 °F 66% 30.11 in 10.0 mi Calm Calm - N/A   Mostly Cloudy
1:55 AM -2.2 °F - - N/A% 30.12 in 10.0 mi Calm Calm - N/A   Mostly Cloudy
2:15 AM -5.8 °F - -14.8 °F 65% 30.12 in 10.0 mi Calm Calm - N/A   Scattered Clouds
2:35 AM -2.2 °F - -11.2 °F 66% 30.12 in 10.0 mi Calm Calm - N/A   Partly Cloudy
2:55 AM -2.2 °F - -9.4 °F 71% 30.12 in 10.0 mi Calm Calm - N/A   Scattered Clouds
3:15 AM -4.0 °F - -14.8 °F 60% 30.13 in 10.0 mi Calm Calm - N/A   Scattered Clouds
3:35 AM -5.8 °F - -13.0 °F 71% 30.13 in 10.0 mi Calm Calm - N/A   Mostly Cloudy
3:55 AM -5.8 °F - -13.0 °F 71% 30.14 in 10.0 mi Calm Calm - N/A   Scattered Clouds
4:15 AM -5.8 °F - -9.4 °F 84% 30.15 in 10.0 mi Calm Calm - N/A   Scattered Clouds
4:35 AM -4.0 °F -12.4 °F -11.2 °F 71% 30.15 in 10.0 mi SSW 3.5 mph - N/A   Scattered Clouds
4:55 AM -5.8 °F - -11.2 °F 77% 30.16 in 10.0 mi Calm Calm - N/A   Scattered Clouds
5:15 AM -5.8 °F - -11.2 °F 77% 30.17 in 10.0 mi Calm Calm - N/A   Mostly Cloudy
5:35 AM -4.0 °F - -7.6 °F 85% 30.18 in 10.0 mi Calm Calm - N/A   Mostly Cloudy
5:55 AM -7.6 °F - -13.0 °F 77% 30.19 in 10.0 mi Calm Calm - N/A   Mostly Cloudy
6:15 AM -5.8 °F - -9.4 °F 84% 30.19 in 10.0 mi Calm Calm - N/A   Partly Cloudy
6:35 AM -7.6 °F - -13.0 °F 77% 30.20 in 10.0 mi Calm Calm - N/A   Clear
6:55 AM -7.6 °F - - N/A% 30.21 in 10.0 mi Calm Calm - N/A   Clear
7:15 AM -7.6 °F - -11.2 °F 84% 30.22 in 10.0 mi Calm Calm - N/A   Clear
7:35 AM -7.6 °F - -9.4 °F 92% 30.23 in 10.0 mi Calm Calm - N/A   Clear
7:55 AM -5.8 °F - -9.4 °F 84% 30.24 in 10.0 mi Calm Calm - N/A   Clear
8:15 AM -2.2 °F - -7.6 °F 78% 30.26 in 10.0 mi Calm Calm - N/A   Clear
8:35 AM -0.4 °F -8.3 °F -5.8 °F 78% 30.26 in 10.0 mi SE 3.5 mph - N/A   Clear
8:55 AM 1.4 °F -9.9 °F -7.6 °F 66% 30.27 in 10.0 mi SSE 5.8 mph - N/A   Partly Cloudy
9:15 AM 3.2 °F -9.1 °F -7.6 °F 61% 30.26 in 10.0 mi ESE 6.9 mph - N/A   Partly Cloudy
9:35 AM 3.2 °F -9.1 °F -9.4 °F 56% 30.27 in 10.0 mi SSE 6.9 mph - N/A   Mostly Cloudy
9:55 AM 3.2 °F -4.2 °F -9.4 °F 56% 30.27 in 10.0 mi SE 3.5 mph - N/A   Mostly Cloudy
10:15 AM 5.0 °F -2.1 °F -7.6 °F 56% 30.28 in 10.0 mi SSE 3.5 mph - N/A   Partly Cloudy
10:35 AM 6.8 °F -0.1 °F -7.6 °F 52% 30.28 in 10.0 mi SSE 3.5 mph - N/A   Partly Cloudy
10:55 AM 6.8 °F -6.9 °F -7.6 °F 52% 30.28 in 10.0 mi SSW 9.2 mph - N/A   Partly Cloudy
11:15 AM 6.8 °F -2.0 °F -7.6 °F 52% 30.28 in 10.0 mi SSE 4.6 mph - N/A   Partly Cloudy
11:35 AM 8.6 °F - -7.6 °F 48% 30.28 in 10.0 mi Calm Calm - N/A   Partly Cloudy
11:55 AM 10.4 °F 2.2 °F -5.8 °F 48% 30.28 in 10.0 mi SSE 4.6 mph - N/A   Scattered Clouds
12:15 PM 10.4 °F 4.0 °F -5.8 °F 48% 30.28 in 10.0 mi East 3.5 mph - N/A   Scattered Clouds
12:35 PM 12.2 °F - -5.8 °F 45% 30.26 in 10.0 mi Calm Calm - N/A   Scattered Clouds
12:55 PM 12.2 °F 4.3 °F -5.8 °F 45% 30.25 in 10.0 mi ENE 4.6 mph - N/A   Mostly Cloudy
1:15 PM 12.2 °F - -5.8 °F 45% 30.24 in 10.0 mi Calm Calm - N/A   Mostly Cloudy
1:35 PM 14.0 °F - -5.8 °F 41% 30.23 in 10.0 mi Calm Calm - N/A   Scattered Clouds
1:55 PM 14.0 °F - -5.8 °F 41% 30.22 in 10.0 mi Calm Calm - N/A   Mostly Cloudy
2:15 PM 15.8 °F 6.1 °F -5.8 °F 38% 30.21 in 10.0 mi South 6.9 mph - N/A   Mostly Cloudy
2:35 PM 15.8 °F 10.2 °F -5.8 °F 38% 30.21 in 10.0 mi SSE 3.5 mph - N/A   Mostly Cloudy
2:55 PM 17.6 °F 10.7 °F -5.8 °F 35% 30.20 in 10.0 mi South 4.6 mph - N/A   Mostly Cloudy
3:15 PM 17.6 °F 10.7 °F -5.8 °F 35% 30.20 in 10.0 mi SSE 4.6 mph - N/A   Mostly Cloudy
3:35 PM 17.6 °F 7.3 °F -5.8 °F 35% 30.20 in 10.0 mi ESE 8.1 mph - N/A   Mostly Cloudy
3:55 PM 17.6 °F 7.3 °F -5.8 °F 35% 30.20 in 10.0 mi South 8.1 mph - N/A   Scattered Clouds
4:15 PM 17.6 °F 7.3 °F -5.8 °F 35% 30.20 in 10.0 mi SSE 8.1 mph - N/A   Scattered Clouds
4:35 PM 19.4 °F 7.9 °F -5.8 °F 33% 30.19 in 10.0 mi South 10.4 mph - N/A   Partly Cloudy
4:55 PM 19.4 °F 7.9 °F -4.0 °F 36% 30.18 in 10.0 mi South 10.4 mph - N/A   Partly Cloudy
5:15 PM 19.4 °F 8.6 °F -5.8 °F 33% 30.19 in 10.0 mi SSE 9.2 mph - N/A   Scattered Clouds
5:35 PM 17.6 °F 6.4 °F -5.8 °F 35% 30.19 in 10.0 mi South 9.2 mph - N/A   Scattered Clouds
5:55 PM 17.6 °F 5.7 °F -5.8 °F 35% 30.19 in 10.0 mi SSE 10.4 mph - N/A   Scattered Clouds
6:15 PM 17.6 °F 9.3 °F -5.8 °F 35% 30.17 in 10.0 mi SSE 5.8 mph - N/A   Partly Cloudy
6:35 PM 17.6 °F 9.3 °F -5.8 °F 35% 30.17 in 10.0 mi SE 5.8 mph - N/A   Scattered Clouds
6:55 PM 15.8 °F 10.2 °F -5.8 °F 38% 30.17 in 10.0 mi SE 3.5 mph - N/A   Mostly Cloudy
7:15 PM 15.8 °F 7.2 °F -4.0 °F 41% 30.17 in 10.0 mi SE 5.8 mph - N/A   Scattered Clouds
7:35 PM 15.8 °F 6.1 °F -5.8 °F 38% 30.16 in 10.0 mi ESE 6.9 mph - N/A   Mostly Cloudy
7:55 PM 15.8 °F 10.2 °F -4.0 °F 41% 30.17 in 10.0 mi East 3.5 mph - N/A   Mostly Cloudy
8:15 PM 14.0 °F 5.1 °F -5.8 °F 41% 30.16 in 10.0 mi ESE 5.8 mph - N/A   Mostly Cloudy
8:35 PM 14.0 °F 3.9 °F -4.0 °F 45% 30.16 in 10.0 mi ESE 6.9 mph - N/A   Mostly Cloudy
8:55 PM 14.0 °F 5.1 °F -4.0 °F 45% 30.15 in 10.0 mi East 5.8 mph - N/A   Mostly Cloudy
9:15 PM 14.0 °F 3.9 °F -4.0 °F 45% 30.15 in 10.0 mi ESE 6.9 mph - N/A   Mostly Cloudy
9:35 PM 14.0 °F 5.1 °F -4.0 °F 45% 30.14 in 10.0 mi ESE 5.8 mph - N/A   Mostly Cloudy
9:55 PM 15.8 °F 6.1 °F -5.8 °F 38% 30.14 in 10.0 mi ESE 6.9 mph - N/A   Scattered Clouds
10:15 PM 14.0 °F 3.9 °F -5.8 °F 41% 30.13 in 10.0 mi ESE 6.9 mph - N/A   Mostly Cloudy
10:35 PM 14.0 °F 2.9 °F -5.8 °F 41% 30.13 in 10.0 mi ESE 8.1 mph - N/A   Mostly Cloudy
10:55 PM 14.0 °F 2.9 °F -5.8 °F 41% 30.13 in 10.0 mi ESE 8.1 mph - N/A   Mostly Cloudy
11:15 PM 14.0 °F 3.9 °F -5.8 °F 41% 30.13 in 10.0 mi ESE 6.9 mph - N/A   Mostly Cloudy
11:35 PM 12.2 °F 1.7 °F -2.2 °F 53% 30.13 in 10.0 mi ESE 6.9 mph - N/A   Mostly Cloudy
11:55 PM 12.2 °F 1.7 °F -4.0 °F 48% 30.13 in 10.0 mi ESE 6.9 mph - N/A   Mostly Cloudy